Погода в Спартаке

Россия / Тульская область     53°26′16″N   37°08′13″E
темп.,
°C
ветер,
м/с
пор.,
м/с
влажн.,
%
обл.,
%
осадки,
мм/ч
давл.,
гПа
погр.,
м
23 июня, ср
ср2300:00+20вюв36750 0.0 102069
03:00+19вюв33791 0.0 102041
06:00+20в35830 0.0 102192
09:00+25в46710 0.0 1021348
12:00+28в45630 0.0 1021913
15:00+29в44580 0.0 10201109
18:00+28в35710 0.0 1020293
21:00+23в33820 0.0 102127
24 июня, чт
чт2400:00+21вюв33840 0.0 102139
03:00+20в33840 0.0 102131
06:00+21в23850 0.0 102173
09:00+26вюв23710 0.0 1021361
12:00+28юв22620 0.0 1021985
15:00+30всв22550 0.0 10201289
18:00+29в22665 0.0 1019948
21:00+24ююв11760 0.0 101911
25 июня, пт
пт2500:00+22вюв11840 0.0 101911
03:00+21вюв11860 0.1 101911
06:00+23всв11840 0.0 101931
09:00+26вюв23730 0.1 1018410
12:00+29вюв335739 0.6 10181349
15:00+29юв23533 0.6 10171874
18:00+28ю24661 0.0 1014235
21:00+23ююз12774 0.1 101611
26 июня, сб
сб2600:00+20ююв12884 1.3 101620
03:00+19ююв22895 1.3 101520
06:00+21ююв23867 0.0 101560
09:00+25ю23745 0.0 1015354
12:00+28ююв116228 0.3 10151063
15:00+29ю225794 0.3 10141652
18:00+29ююв23685 0.0 1013191
21:00+24юв22808 0.5 101311
27 июня, вс
вс2700:00+22ююв2284100 0.2 101321
03:00+21вюв2287100 0.2 101312
06:00+22вюв2387100 0.0 101374
09:00+26юв3474100 0.2 1013315
12:00+29ююв4563100 0.0 1013849
15:00+30юв235638 0.0 10131273
18:00+27ююв58765 1.0 1012276
21:00+23ю338676 1.8 101236